SCP
1 0 0 0 0 0 0 0 0 0 0 0 0 0 0 0 0 0 0 0 0 0 0 0 0 0 0 0 0 0 0 0 0 0 0 1 1 1 1 1 1 1 1 1 1 1 1 1 1
0 0 0 0 0 0 0 0 0 0 0 0 0 0 0 0 0 0 0 0 0 0 0 0 0 0 0 0 0 0 0 0 0 0 0 0 0 0 0 1 1 1 1 1 1 1 1 1 1
0 0 0 0 0 0 0 0 0 0 0 0 0 0 0 0 0 0 0 0 0 0 0 0 0 0 0 0 0 0 0 0 0 0 0 0 0 0 0 0 1 1 1 1 1 1 1 1 1
0 0 0 0 0 0 0 0 0 0 0 0 0 0 0 0 0 0 0 0 0 0 0 0 0 0 0 0 0 0 0 0 0 0 0 0 0 0 0 1 1 1 1 0 0 0 0 1 1
0 0 0 0 0 0 0 0 0 0 0 0 0 0 0 0 0 0 0 0 0 0 0 0 0 0 0 0 0 0 1 1 1 0 0 0 0 0 0 1 1 1 1 0 0 0 0 0 1
0 0 0 0 0 0 0 0 0 0 0 0 0 0 0 0 0 0 0 0 0 0 0 0 0 0 0 0 0 0 1 1 0 0 0 0 0 0 0 1 1 0 1 1 1 0 0 1 1
0 0 0 0 0 0 0 0 0 0 0 0 0 0 0 0 0 0 0 0 0 0 0 0 0 0 0 0 0 0 0 0 0 0 0 0 0 0 0 0 0 0 0 1 0 0 0 1 1
0 0 0 0 0 0 0 0 0 0 0 0 0 0 0 0 0 0 0 0 0 0 0 0 0 0 0 0 0 0 0 0 0 0 0 0 0 0 0 0 0 0 0 0 0 0 0 0 1
0 0 0 0 0 0 0 0 0 0 0 0 0 0 0 0 0 0 0 0 0 0 0 0 0 0 0 0 0 0 0 0 0 0 0 0 0 0 0 0 0 0 0 0 0 0 0 0 0
0 0 0 0 0 0 0 0 0 0 0 0 0 0 0 0 0 0 0 0 0 0 0 0 0 0 0 0 0 0 0 0 0 0 0 0 0 0 0 0 0 0 1 1 0 0 0 0 0
0 0 0 0 0 0 0 0 0 0 0 0 0 0 0 0 0 0 0 0 0 0 0 0 0 0 0 0 0 0 0 0 0 0 0 0 0 0 0 0 0 0 1 1 0 0 0 0 0
0 0 0 0 0 0 0 0 0 0 0 0 0 0 0 0 0 0 0 0 0 0 0 0 0 0 0 0 0 0 0 0 0 0 0 0 0 0 0 0 0 0 0 0 0 0 0 0 0
0 0 0 0 0 0 0 0 0 0 0 0 1 1 0 0 0 0 0 0 0 0 0 0 0 0 0 0 0 0 0 0 0 0 0 0 0 0 0 0 0 0 0 0 0 0 0 0 0
0 0 0 0 0 0 0 0 0 0 0 0 1 1 0 0 0 0 0 0 0 0 0 0 0 0 0 0 0 0 0 0 0 0 0 0 0 0 0 0 0 0 0 0 0 0 0 0 0
0 0 0 0 0 0 0 0 0 0 0 0 1 1 0 0 0 0 0 0 0 0 0 0 0 0 0 0 0 0 0 0 0 0 0 0 0 0 0 0 0 0 0 0 0 0 0 0 0
0 0 0 0 0 0 0 0 0 0 0 0 0 0 0 0 0 0 0 0 0 0 0 0 0 0 0 0 0 0 0 0 0 0 0 0 0 0 0 0 0 0 0 0 0 0 0 0 0
0 0 0 0 0 0 0 0 0 0 0 0 0 0 0 0 0 0 0 0 0 0 0 0 0 0 0 0 0 0 0 0 0 0 0 0 0 0 0 0 0 0 0 0 0 0 0 0 0
0 0 0 0 0 0 0 0 0 0 0 0 0 0 0 0 0 0 0 0 0 0 0 0 0 0 0 0 0 0 0 0 0 0 0 0 0 0 0 0 0 0 0 0 0 0 0 0 0
0 0 0 0 0 0 0 0 0 0 0 0 0 0 0 0 0 0 0 0 0 0 0 0 0 0 0 0 0 0 0 0 0 0 0 0 0 0 0 0 0 0 0 0 0 0 0 0 0
0 0 0 0 0 0 0 0 0 0 0 0 0 0 0 0 0 0 1 1 1 0 0 0 0 0 0 0 0 0 0 0 0 0 0 0 0 0 0 0 0 0 0 0 0 0 0 0 0
0 0 0 0 0 0 0 0 0 0 0 0 0 0 0 0 0 1 1 1 1 0 0 0 0 0 0 0 0 0 0 0 0 0 0 0 0 0 0 0 0 0 0 0 0 0 0 0 0
0 0 0 0 0 0 0 0 0 0 0 0 0 0 0 1 1 1 1 1 1 1 0 0 0 0 0 0 0 0 0 0 0 0 0 0 0 0 0 0 0 0 0 0 0 0 0 0 0
0 0 0 0 0 0 0 0 0 0 0 0 0 0 0 1 1 1 1 1 1 1 1 0 0 0 0 1 1 1 1 1 0 0 0 0 0 0 0 0 0 0 0 0 0 0 0 0 0
0 0 0 0 0 0 0 0 0 0 0 0 0 0 0 0 1 1 1 1 1 1 1 0 0 0 0 1 1 1 1 1 0 0 0 0 0 0 0 0 0 0 0 0 0 0 0 0 0
0 0 0 0 0 0 0 0 0 0 0 0 0 0 0 0 0 1 1 1 1 1 1 0 0 0 0 0 1 1 1 1 1 0 0 0 0 0 0 0 0 0 0 0 0 0 0 0 0
0 0 0 0 0 0 0 0 0 0 0 0 0 0 0 0 0 0 1 1 1 1 1 1 0 0 0 0 0 0 1 1 0 0 0 0 0 0 0 0 0 0 0 0 0 0 0 0 0
0 0 0 0 0 0 0 0 0 0 0 0 0 0 0 0 0 0 0 1 1 1 1 1 0 0 0 0 0 0 0 0 0 0 0 0 0 0 0 0 0 0 0 0 0 0 0 0 0
0 0 0 0 0 0 0 0 0 0 0 0 0 0 0 0 0 0 0 0 1 1 1 1 1 0 0 0 0 0 0 0 0 0 0 0 0 0 0 0 0 0 0 0 0 0 0 0 0
0 0 0 0 0 0 0 0 0 0 0 0 0 0 0 0 0 0 0 0 0 1 1 0 0 0 0 0 0 0 0 0 0 0 0 0 0 0 0 0 0 0 0 0 0 0 0 0 0
0 0 0 0 0 0 0 0 0 0 0 0 0 0 0 0 0 0 0 0 0 1 1 0 0 0 0 0 0 0 0 0 0 0 0 0 0 0 0 0 0 0 0 0 0 0 0 0 0
Wind_Speed
1 3 3 4 6 6 2 1 0 1 2 2 3 6 6 4 2 1 2 1 1 0 1 0 1 3 4 6 7 7 7 8 8 8 8 8 9 8 8 8 8 8 8 8 7 7 6 6 6
1 2 4 5 6 3 2 1 1 1 4 3 4 4 5 3 2 2 0 1 2 1 0 1 3 4 5 6 6 7 7 7 8 8 8 8 9 8 8 8 8 8 8 8 8 8 7 7 7
2 3 4 5 4 3 1 1 2 3 3 2 3 4 3 2 1 2 2 2 2 2 1 1 4 5 6 6 6 7 7 8 8 8 8 9 8 8 8 8 8 8 8 8 8 8 7 7 7
3 4 5 5 3 1 2 2 3 4 3 3 4 4 2 1 2 2 3 4 3 2 2 2 5 5 6 7 7 7 8 8 8 8 8 8 8 9 8 8 8 8 8 8 8 8 8 8 8
4 4 6 3 1 1 0 1 2 3 2 2 3 4 2 3 2 4 4 4 4 2 1 2 5 6 6 7 7 7 7 8 8 8 8 8 8 9 9 9 9 9 8 8 8 8 8 8 8
5 5 5 1 1 1 1 1 3 4 3 3 4 4 1 1 3 3 3 3 3 3 2 2 4 5 5 6 7 7 7 7 8 8 8 8 8 9 9 9 9 9 9 8 8 8 8 8 9
4 4 3 2 1 1 1 1 4 4 3 3 5 4 1 1 2 3 3 3 3 3 3 2 2 3 4 5 6 6 7 7 7 7 8 8 8 9 9 9 9 9 9 9 9 9 9 9 9
4 5 2 1 2 1 1 1 2 4 3 3 4 6 4 4 3 4 4 4 3 3 2 2 2 2 2 3 4 5 5 6 6 7 7 7 8 8 9 8 8 9 9 9 9 9 9 9 9
3 5 2 3 4 2 2 2 2 2 4 2 1 3 3 6 6 5 3 3 2 1 1 1 1 2 2 2 3 4 4 5 5 5 7 7 5 5 5 7 8 8 8 9 9 9 9 9 9
3 3 4 4 5 4 2 3 3 3 3 2 2 3 5 7 7 6 4 3 2 1 1 1 0 1 1 2 3 2 2 3 3 3 3 3 3 3 4 7 8 7 8 8 9 9 9 7 4
2 3 2 2 4 4 3 2 2 6 2 4 5 6 7 6 6 5 4 3 3 2 1 1 1 0 1 1 1 1 1 2 2 2 2 2 2 2 3 2 4 4 6 4 6 6 4 4 3
2 1 2 2 3 3 3 3 3 3 4 4 6 8 8 8 7 6 5 4 2 2 1 1 1 1 1 1 1 1 1 1 1 1 2 2 2 2 2 2 2 2 2 3 3 3 4 4 4
1 1 1 2 3 4 4 3 3 1 1 4 7 7 7 7 5 4 4 3 3 2 2 1 1 1 1 1 1 1 1 1 1 1 2 2 2 2 2 2 2 2 2 2 2 3 3 4 4
1 2 2 2 2 1 3 1 1 2 3 6 7 6 6 6 6 4 4 4 4 4 3 2 2 2 2 1 1 1 1 1 1 1 1 2 2 2 2 2 2 2 2 2 2 3 3 3 3
3 3 3 1 1 1 4 1 2 2 5 6 5 5 4 4 4 5 6 5 5 4 3 3 2 2 2 2 1 1 1 1 1 1 1 2 2 2 2 2 2 2 2 3 3 3 3 3 4
3 3 1 3 1 2 4 3 4 3 7 6 5 4 4 4 4 4 4 4 4 3 3 3 3 3 2 2 1 1 1 1 1 1 1 2 2 3 2 2 2 1 2 2 2 2 3 3 3
3 1 2 3 1 2 3 4 3 3 7 6 5 5 4 4 3 4 4 4 4 4 4 3 2 3 3 2 2 2 2 2 1 1 1 2 2 3 3 2 1 2 2 2 2 3 2 3 3
3 2 2 3 1 3 3 5 3 2 5 6 5 4 5 5 6 5 4 4 4 4 4 4 3 3 3 2 3 2 2 2 1 1 1 2 2 3 3 2 2 2 2 2 2 3 3 2 2
4 3 2 4 2 3 4 5 4 3 4 5 5 5 6 7 5 2 3 3 3 3 4 4 4 3 3 2 2 2 1 1 1 1 1 2 2 2 3 2 2 2 2 2 2 2 3 2 2
3 2 2 3 1 3 3 4 4 3 5 7 8 8 7 5 3 2 2 3 4 4 4 4 4 4 3 2 2 2 2 1 1 1 1 2 2 2 2 3 2 2 2 2 2 2 2 2 2
2 4 4 3 1 1 1 4 3 3 2 3 4 5 7 8 6 4 3 3 3 4 5 4 4 4 3 3 3 3 3 2 2 2 1 1 1 2 2 2 2 2 2 2 1 2 3 2 1
4 5 5 3 1 2 1 3 6 3 2 4 5 5 7 7 6 6 5 5 4 5 4 4 4 4 3 4 4 4 3 2 1 1 0 1 1 1 2 2 2 2 2 2 1 2 2 3 1
5 1 2 2 2 0 1 2 7 2 4 6 7 7 7 7 7 7 7 7 5 4 4 4 4 4 3 3 4 4 2 1 1 1 1 1 1 1 1 2 2 2 2 2 2 2 2 2 2
3 4 4 4 3 1 3 3 6 4 6 5 5 6 6 6 6 6 5 5 4 3 4 4 4 3 3 4 4 4 4 3 2 2 1 1 1 1 1 1 1 2 2 2 2 2 2 2 2
4 5 3 3 2 5 2 3 7 5 4 5 6 6 6 5 5 5 6 6 5 5 5 5 5 4 3 4 3 4 4 4 4 3 2 1 0 0 0 1 1 1 1 2 2 2 1 2 2
3 6 6 4 4 4 1 5 7 4 3 3 3 3 3 4 5 5 6 6 6 6 6 6 6 5 4 4 3 3 3 3 2 2 2 2 2 1 1 1 1 1 1 1 2 1 1 1 2
4 3 5 5 2 1 4 5 7 2 2 1 0 2 3 4 4 5 5 5 5 6 6 7 6 5 5 4 3 3 3 3 2 2 2 2 1 1 1 1 1 1 1 1 2 1 1 1 2
4 6 5 4 4 3 4 4 5 5 4 2 1 3 3 3 3 4 4 4 4 4 4 5 6 5 4 4 4 3 3 2 2 2 2 2 1 1 1 1 1 0 0 1 1 1 1 2 1
2 3 4 3 4 5 3 7 5 5 4 4 4 3 4 4 4 4 4 4 3 3 3 4 4 4 4 4 3 3 2 2 2 2 1 1 1 1 2 1 1 1 1 1 1 1 2 2 1
3 5 6 4 3 4 3 8 4 3 3 3 3 2 2 3 3 3 3 3 3 3 3 4 4 4 4 4 3 3 2 2 2 1 0 1 1 1 1 1 1 1 1 1 1 2 2 2 2
Wind_Direction
89 91 83 58 54 52 44 333 291 72 54 34 66 83 92 86 103 148 262 178 153 185 281 286 76 79 79 79 78 79 77 75 75 79 81 81 83 86 82 79 77 76 76 75 75 76 86 91 98
97 97 60 60 77 70 337 306 113 131 141 137 72 72 74 67 77 116 278 189 144 143 62 94 97 90 86 84 82 80 81 78 76 77 78 79 80 81 81 79 79 77 78 78 73 72 85 88 91
105 68 78 69 88 147 182 226 147 93 105 100 72 58 81 99 121 158 213 159 117 90 63 97 100 93 91 89 86 84 83 80 78 78 77 77 77 76 80 81 83 81 80 81 80 74 76 82 86
84 48 56 68 78 213 196 188 143 121 83 56 90 70 54 10 163 168 146 129 112 87 68 93 100 94 93 92 88 83 82 79 77 77 78 77 75 73 76 80 82 81 80 79 81 77 75 78 81
64 72 62 52 14 334 220 154 134 114 103 69 94 95 41 354 89 121 127 126 125 112 79 78 99 95 93 93 90 86 83 80 76 75 76 76 74 74 74 74 76 76 77 80 78 74 75 81 78
59 66 80 82 345 357 354 132 115 99 104 103 104 108 79 12 112 129 125 125 123 115 90 70 88 92 88 90 89 85 80 79 78 75 75 73 73 73 72 71 72 73 74 76 77 74 74 78 77
100 92 118 138 128 43 157 95 125 127 130 156 136 113 131 213 172 126 100 91 82 79 73 53 47 66 80 84 86 84 78 77 77 74 72 69 67 68 67 66 68 70 73 74 74 72 72 76 75
122 101 94 131 138 194 167 96 118 125 139 130 126 137 185 203 148 109 86 71 66 63 61 53 41 41 49 47 66 76 75 74 73 70 66 61 55 53 53 55 60 63 65 68 68 69 70 71 73
96 84 150 190 171 191 159 106 69 83 105 104 135 165 177 140 124 112 92 69 73 81 62 69 51 36 45 40 59 55 56 56 57 54 57 52 42 36 35 42 55 59 60 62 62 63 67 66 67
94 133 206 194 176 167 146 121 132 92 85 80 70 73 109 125 136 145 153 158 162 166 145 117 77 46 47 44 51 38 41 40 44 44 47 50 51 42 38 33 43 50 54 58 57 56 57 56 52
127 170 188 170 166 147 127 108 109 122 150 200 176 157 139 139 150 164 179 182 186 183 168 150 164 113 88 62 57 46 42 35 35 38 49 61 54 44 35 30 29 36 43 41 45 48 44 50 54
124 181 155 155 139 127 136 131 113 157 211 196 166 154 150 158 172 182 189 195 172 164 190 172 156 121 104 95 72 68 58 43 34 27 53 72 64 49 39 38 34 38 40 48 48 54 51 54 55
123 123 96 120 120 125 115 125 141 238 249 125 126 137 159 170 182 190 185 179 169 183 196 190 160 149 127 95 77 85 85 80 70 54 60 85 88 71 58 48 45 45 48 54 55 58 56 55 53
135 100 73 75 94 107 118 80 116 237 123 123 137 159 173 175 180 177 173 180 188 195 195 184 174 162 133 124 109 102 101 90 79 74 82 92 97 95 82 67 55 48 51 57 65 66 61 56 56
92 70 25 16 134 162 111 9 243 209 135 141 158 167 169 185 183 190 189 190 191 192 186 180 176 146 137 136 127 104 96 90 82 77 88 100 101 102 96 83 67 51 61 69 68 63 60 60 56
66 69 329 295 163 163 133 244 258 164 150 165 180 181 182 199 200 206 199 193 190 175 172 184 172 148 141 131 118 101 92 96 92 87 89 104 106 112 107 97 82 69 69 74 75 64 63 56 54
36 101 245 294 213 136 155 238 265 167 160 179 189 192 197 208 220 223 210 198 190 179 170 168 158 149 143 121 95 88 83 80 83 84 93 109 107 109 110 101 89 81 75 69 79 67 73 70 59
209 211 247 254 250 132 183 242 260 189 179 193 194 194 200 212 224 221 208 193 186 175 164 162 154 145 125 101 83 72 65 55 63 76 96 109 112 115 113 106 95 91 88 71 72 77 66 72 69
172 176 237 258 222 163 214 243 253 200 192 201 200 200 207 221 230 213 195 175 169 167 160 164 160 155 134 115 114 108 94 46 43 59 97 112 115 120 120 114 106 101 101 104 102 99 79 54 52
173 194 257 289 256 180 230 262 259 197 203 204 200 202 211 221 218 200 189 176 179 180 172 166 167 162 159 151 140 131 122 109 71 49 77 97 112 121 126 128 130 121 107 96 95 107 103 62 45
220 203 218 236 332 40 51 311 283 258 217 212 209 204 208 205 203 200 192 193 183 179 179 176 170 163 159 135 106 82 61 47 41 39 45 43 101 115 120 132 134 134 131 140 142 134 127 121 42
244 228 209 200 141 280 166 276 281 261 258 230 223 213 215 212 200 197 190 190 193 195 181 169 161 156 152 140 135 134 135 149 196 177 132 47 79 103 116 123 132 138 135 143 160 131 132 132 133
219 200 152 177 166 290 324 213 282 279 253 246 229 222 220 211 198 197 195 193 194 185 171 165 152 147 147 145 146 141 135 152 118 91 87 64 51 74 115 133 134 139 150 160 152 135 138 146 159
137 73 56 47 78 265 236 196 276 242 228 241 228 220 220 212 201 197 189 176 178 168 153 149 146 150 148 148 150 153 150 145 128 119 119 68 40 33 66 134 144 158 163 172 170 157 151 156 150
86 91 34 355 1 253 237 201 251 254 237 225 226 220 213 205 192 184 177 178 179 174 168 159 154 159 155 152 159 168 169 165 167 167 169 164 152 222 259 143 161 170 175 170 159 146 164 167 162
173 143 161 198 222 274 292 232 254 268 278 250 229 208 186 188 191 191 187 183 182 181 173 166 167 170 164 163 177 176 173 169 174 172 169 178 192 208 200 166 161 159 155 154 145 146 177 155 168
144 172 167 137 171 263 274 284 301 304 329 328 178 170 189 192 193 195 189 184 182 180 178 176 173 172 173 174 172 169 168 170 174 170 164 167 177 164 130 135 122 125 135 141 146 159 184 164 174
146 144 108 127 162 244 285 271 256 282 286 288 227 208 212 194 189 191 187 186 186 183 174 167 169 176 174 165 165 167 172 172 163 155 169 173 173 147 137 139 133 136 168 169 158 168 178 163 189
111 110 115 124 155 164 245 268 233 231 245 241 235 222 208 197 193 193 189 182 169 154 156 165 163 155 154 158 158 152 154 143 140 149 178 179 167 162 156 170 173 180 192 196 177 188 170 180 201
171 166 148 154 209 181 193 262 269 244 249 239 235 221 214 204 189 179 170 155 150 151 155 161 160 156 164 155 140 137 132 125 125 134 152 151 163 177 165 158 160 184 195 185 178 196 187 188 201